Volver al catálogo

CZ-6A R/B

ActivoPO
NORAD 69400·ROCKET BODY·🇨🇳 China

Lanzado Jun 4, 2026 desde Taiyuan Satellite Launch Center

Loading…

Próximos Pases (próximas 24 horas)

TLE

ActualizadoSource: Space-Track

Época: Sep 14, 2026, 21:51 UTC

1 69400U 26124U   26257.91097073  .00000294  00000-0  56484-4 0  9998
2 69400  89.0335 351.4574 0100067 111.2741 249.9191 14.57341771 14920

Sigue CZ-6A R/B en tiempo real con AllMySat

Download on the App Store